190P/Mueller (1998)

Japanese version
Home page
Total 6,336 html files since Dec. 4, 1995
Updated on July 28, 2007

---------------------------------------------------------------------

* Profile

Designation 190P/1998 U2
Discovery Date October 21, 1998
Magnitude 18 mag
Discoverer J. Mueller (Palomar Outer Solar System Ecliptic Survey)

* Pictures

* Orbital Elements

                    Epoch = 1998 Nov.  3.0 TT
     T = 1998 Oct. 20.75954 TT        Peri. =  49.53569
     e = 0.5215660                    Node  = 336.22405 2000.0
     q = 2.0253092 AU                 Incl. =   2.19329
       a =  4.2332052 AU   n = 0.11316187   P =   8.71 years

* Finding Charts

* Magnitudes Graph

        m1 = 7.5 + 5 log d + 30.0 log r

---------------------------------------------------------------------

The orbital elements are printed on IAUC 8859.
The charts are made with StellaNavigator Ver.2.0 for Windows (AstroArts / ASCII).
The magnitudes graphs are made with Comet for Windows.

---------------------------------------------------------------------

Copyright(C) 1995-2008 Seiichi Yoshida (comet@aerith.net). All rights reserved.